Hanford, CA

1:35 AM PST on February 20, 2017 (GMT -0800)
Hanford Municipal

Weather History for KHJO - November, 2011

Change the Weather History Date:

Friday, November 25, 2011

  Actual Average Record
Temperature  
Mean Temperature 50 °F 48 °F  
Max Temperature 58 °F 60 °F 69 °F (2005)
Min Temperature 42 °F 37 °F 26 °F (2003)
Degree Days  
Heating Degree Days 15    
Month to date heating degree days 346  
Since 1 July heating degree days 414  
Cooling Degree Days 0    
Month to date cooling degree days 0  
Year to date cooling degree days 1664  
Moisture  
Dew Point 44 °F    
Average Humidity 80    
Maximum Humidity 93    
Minimum Humidity 67    
Precipitation  
Precipitation 0.00 in 0.02 in 0.49 in (1970)
Month to date precipitation 0.71 0.91  
Year to date precipitation 7.41 8.38  
Since 1 July precipitation 1.23  
Snow  
Snow 0.00 in - - ()
Month to date snowfall 0.0  
Since 1 July snowfall 0.0  
Since 1 September snowfall 0.0  
Snow Depth 0.00 in    
Sea Level Pressure  
Sea Level Pressure 30.34 in    
Wind  
Wind Speed 4 mph (NNE)    
Max Wind Speed 13 mph    
Max Gust Speed -    
Visibility 4 miles    
Events      
T = Trace of Precipitation, MM = Missing Value Source: NWS Daily Summary

Daily Weather History Graph

Daily Weather History Graph

Search for Another Location

Airport or City:

Trip Planner

Search our weather history database for the weather conditions in past years. The results will help you decide how hot, cold, wet, or windy it might be!

Date:

Astronomy

Nov. 25, 2011 Rise Set
Actual Time 6:45 AM PST 4:45 PM PST
Civil Twilight 6:17 AM PST 5:13 PM PST
Nautical Twilight 5:45 AM PST 5:44 PM PST
Astronomical Twilight 5:15 AM PST 6:15 PM PST
Moon 7:17 AM PST (11/25) 5:19 PM PST (11/25)
Length of Visible Light 10h 55m
Length of Day
9h 59m
New Moon, 0% of the Moon is Illuminated
Nov 25
New Moon
Dec 2
First Quarter
Dec 10
Full
Dec 17
Last Quarter
Dec 24
New

Hourly Weather History & Observations

Time (PST) Temp. Windchill Dew Point Humidity Pressure Visibility Wind Dir Wind Speed Gust Speed Precip Events Conditions
12:53 AM 50.0 °F - 45.0 °F 83% 30.24 in 6.0 mi NW 6.9 mph - N/A   Haze
1:53 AM 48.9 °F - 45.0 °F 86% 30.24 in 5.0 mi WNW 5.8 mph - N/A   Clear
2:53 AM 46.9 °F - 44.1 °F 90% 30.25 in 4.0 mi NW 8.1 mph - N/A   Clear
3:53 AM 48.0 °F - 44.1 °F 86% 30.28 in 6.0 mi NNW 12.7 mph - N/A   Clear
4:53 AM 46.0 °F 44.8 °F 43.0 °F 89% 30.27 in 6.0 mi NW 3.5 mph - N/A   Clear
5:53 AM 45.0 °F 42.6 °F 42.1 °F 90% 30.29 in 6.0 mi NNW 4.6 mph - N/A   Clear
6:53 AM 44.1 °F - 41.0 °F 89% 30.32 in 4.0 mi North - - N/A   Clear
7:53 AM 46.0 °F 43.9 °F 43.0 °F 89% 30.34 in 4.0 mi NNW 4.6 mph - N/A   Clear
8:53 AM 48.9 °F - 44.1 °F 83% 30.35 in 5.0 mi NE 4.6 mph - N/A   Haze
9:19 AM 48.2 °F - 44.6 °F 87% 30.35 in 4.0 mi NNE 5.8 mph - N/A   Haze
9:30 AM 51.8 °F - 44.6 °F 76% 30.35 in 5.0 mi Variable 5.8 mph - N/A   Haze
9:36 AM 50.0 °F - 44.6 °F 82% 30.35 in 5.0 mi Calm Calm - N/A   Haze
9:53 AM 50.0 °F - 46.0 °F 86% 30.37 in 4.0 mi Calm Calm - N/A   Mostly Cloudy
10:03 AM 50.0 °F - 44.6 °F 82% 30.36 in 4.0 mi Calm Calm - N/A   Haze
11:04 AM 53.6 °F - 46.4 °F 77% 30.35 in 5.0 mi Variable 4.6 mph - N/A   Haze
11:53 AM 55.9 °F - 46.9 °F 72% 30.35 in 6.0 mi NE 4.6 mph - N/A   Haze
12:11 PM 57.2 °F - 46.4 °F 67% 30.33 in 6.0 mi Variable 3.5 mph - N/A   Haze
1:53 PM 57.9 °F - 48.0 °F 70% 30.32 in 7.0 mi East 4.6 mph - N/A   Partly Cloudy
2:53 PM 57.9 °F - 46.9 °F 67% 30.32 in 7.0 mi Variable 3.5 mph - N/A   Clear
3:53 PM 57.9 °F - 46.9 °F 67% 30.33 in 6.0 mi ENE 4.6 mph - N/A   Haze
4:53 PM 53.1 °F - 46.0 °F 77% 30.34 in 6.0 mi East 3.5 mph - N/A   Haze
5:53 PM 48.9 °F - 45.0 °F 86% 30.36 in 5.0 mi ENE 4.6 mph - N/A   Clear
6:53 PM 46.9 °F - 44.1 °F 90% 30.36 in 4.0 mi Calm Calm - N/A   Clear
8:53 PM 44.1 °F - 42.1 °F 93% 30.39 in 1.5 mi Calm Calm - N/A   Clear
9:02 PM 44.6 °F - 42.8 °F 93% 30.38 in 3.0 mi Calm Calm - N/A   Clear
9:25 PM 42.8 °F 40.1 °F 41.0 °F 93% 30.38 in 2.0 mi NE 4.6 mph - N/A   Clear
10:26 PM 44.6 °F 43.1 °F 41.0 °F 87% 30.39 in 1.8 mi East 3.5 mph - 0.01 in   Overcast
10:35 PM 44.6 °F - 42.8 °F 93% 30.40 in 2.0 mi Calm Calm - 0.01 in   Overcast
10:49 PM 44.6 °F - 42.8 °F 93% 30.40 in 3.0 mi Calm Calm - 0.01 in   Overcast
10:53 PM 45.0 °F - 43.0 °F 93% 30.41 in 4.0 mi Calm Calm - 0.01 in   Overcast
11:16 PM 46.4 °F - 42.8 °F 87% 30.40 in 2.5 mi Calm Calm - N/A   Overcast
11:25 PM 46.4 °F 45.2 °F 44.6 °F 93% 30.40 in 3.0 mi NW 3.5 mph - N/A   Overcast
11:53 PM 46.9 °F - 44.1 °F 90% 30.41 in 3.0 mi Calm Calm - N/A   Overcast